Voltar ao catálogo

STARLINK-4340

AtivoComunicaçõesSSO
NORAD 53494·PAYLOAD·🇺🇸 United States

Lançado Aug 12, 2022 de Vandenberg Space Force Base

Loading…

Próximas Passagens (próximas 24 horas)

TLE

AtualizadoSource: CelesTrak SupGP

Época: Sep 14, 2026, 21:40 UTC

1 53494C 22099AF  26257.90326389 -.00154330  00000+0 -47891-2 0  2574
2 53494  97.2868  15.5681 0001297  97.8992  38.3583 15.33527854    10

Acompanhe STARLINK-4340 em tempo real com AllMySat

Download on the App Store